Time,TemperatureF,DewpointF,PressureIn,WindDirection,WindDirectionDegrees,WindSpeedMPH,WindSpeedGustMPH,Humidity,HourlyPrecipIn,Conditions,Clouds,dailyrainin,SolarRadiationWatts/m^2,SoftwareType,DateUTC
2013-07-16 11:52:00,61.0,42.0,-100.00,ESE,123,3.0,9.0,49,-99.99,,,0.00,1000.000000,,2013-07-16 17:52:00,
2013-07-16 12:22:00,61.0,42.0,-100.00,ESE,123,3.0,9.0,49,-99.99,,,0.00,1000.000000,,2013-07-16 18:22:00,
2013-07-16 12:32:00,61.0,42.0,-100.00,ESE,123,3.0,9.0,49,-99.99,,,0.00,1000.000000,,2013-07-16 18:32:00,
2013-07-16 12:43:00,61.0,42.0,-100.00,ESE,123,3.0,9.0,49,-99.99,,,0.00,1000.000000,,2013-07-16 18:43:00,
2013-07-16 12:52:00,63.0,44.0,-100.00,SSE,155,4.0,12.0,49,0.00,,,0.00,1089.000000,,2013-07-16 18:52:00,
2013-07-16 13:22:00,63.0,44.0,-100.00,SSE,155,4.0,12.0,49,0.00,,,0.00,1089.000000,,2013-07-16 19:22:00,
2013-07-16 13:32:00,63.0,44.0,-100.00,SSE,155,4.0,12.0,49,0.00,,,0.00,1089.000000,,2013-07-16 19:32:00,
2013-07-16 13:43:00,63.0,44.0,-100.00,SSE,155,4.0,12.0,49,0.00,,,0.00,1089.000000,,2013-07-16 19:43:00,
2013-07-16 13:52:00,61.0,43.0,-100.00,ESE,115,7.0,15.0,51,0.00,,,0.00,879.000000,,2013-07-16 19:52:00,
2013-07-16 14:22:00,61.0,43.0,-100.00,ESE,115,7.0,15.0,51,0.00,,,0.00,879.000000,,2013-07-16 20:22:00,
2013-07-16 14:32:00,61.0,43.0,-100.00,ESE,115,7.0,15.0,51,0.00,,,0.00,879.000000,,2013-07-16 20:32:00,
2013-07-16 14:43:00,61.0,43.0,-100.00,ESE,115,7.0,15.0,51,0.00,,,0.00,879.000000,,2013-07-16 20:43:00,
2013-07-16 14:52:00,56.0,41.0,-100.00,ESE,105,11.0,17.0,56,0.00,,,0.00,637.000000,,2013-07-16 20:52:00,
2013-07-16 15:22:00,56.0,41.0,-100.00,ESE,105,11.0,17.0,56,0.00,,,0.00,637.000000,,2013-07-16 21:22:00,
2013-07-16 15:32:00,56.0,41.0,-100.00,ESE,105,11.0,17.0,56,0.00,,,0.00,637.000000,,2013-07-16 21:32:00,
2013-07-16 15:43:00,56.0,41.0,-100.00,ESE,105,11.0,17.0,56,0.00,,,0.00,637.000000,,2013-07-16 21:43:00,
2013-07-16 15:52:00,58.0,42.0,-100.00,ESE,120,14.0,20.0,55,0.00,,,0.00,732.000000,,2013-07-16 21:52:00,
2013-07-16 16:22:00,58.0,42.0,-100.00,ESE,120,14.0,20.0,55,0.00,,,0.00,732.000000,,2013-07-16 22:22:00,
2013-07-16 16:33:00,58.0,42.0,-100.00,ESE,120,14.0,20.0,55,0.00,,,0.00,732.000000,,2013-07-16 22:33:00,
2013-07-16 16:43:00,58.0,42.0,-100.00,ESE,120,14.0,20.0,55,0.00,,,0.00,732.000000,,2013-07-16 22:43:00,
2013-07-16 16:52:00,58.0,40.0,-100.00,ESE,121,15.0,23.0,51,0.00,,,0.00,775.000000,,2013-07-16 22:52:00,
2013-07-16 17:22:00,58.0,40.0,-100.00,ESE,121,15.0,23.0,51,0.00,,,0.00,775.000000,,2013-07-16 23:22:00,
2013-07-16 17:32:00,58.0,40.0,-100.00,ESE,121,15.0,23.0,51,0.00,,,0.00,775.000000,,2013-07-16 23:32:00,
2013-07-16 17:43:00,58.0,40.0,-100.00,ESE,121,15.0,23.0,51,0.00,,,0.00,775.000000,,2013-07-16 23:43:00,
2013-07-16 17:52:00,59.0,41.0,-100.00,ESE,111,9.0,25.0,52,0.00,,,0.00,679.000000,,2013-07-16 23:52:00,
2013-07-16 18:11:00,59.0,41.0,-100.00,ESE,111,9.0,25.0,52,0.00,,,0.00,679.000000,,2013-07-17 00:11:00,
2013-07-16 18:22:00,59.0,41.0,-100.00,ESE,111,9.0,25.0,52,0.00,,,0.00,679.000000,,2013-07-17 00:22:00,
2013-07-16 18:33:00,59.0,41.0,-100.00,ESE,111,9.0,25.0,52,0.00,,,0.00,679.000000,,2013-07-17 00:33:00,
2013-07-16 18:42:00,59.0,41.0,-100.00,ESE,111,9.0,25.0,52,0.00,,,0.00,679.000000,,2013-07-17 00:42:00,
2013-07-16 18:52:00,58.0,44.0,-100.00,ESE,116,16.0,29.0,60,0.00,,,0.00,487.000000,,2013-07-17 00:52:00,
2013-07-16 19:22:00,58.0,44.0,-100.00,ESE,116,16.0,29.0,60,0.00,,,0.00,487.000000,,2013-07-17 01:22:00,
2013-07-16 19:32:00,58.0,44.0,-100.00,ESE,116,16.0,29.0,60,0.00,,,0.00,487.000000,,2013-07-17 01:32:00,
2013-07-16 19:43:00,58.0,44.0,-100.00,ESE,116,16.0,29.0,60,0.00,,,0.00,487.000000,,2013-07-17 01:43:00,
2013-07-16 19:52:00,58.0,45.0,-100.00,SE,136,11.0,27.0,62,0.00,,,0.00,233.000000,,2013-07-17 01:52:00,
2013-07-16 20:11:00,58.0,45.0,-100.00,SE,136,11.0,27.0,62,0.00,,,0.00,233.000000,,2013-07-17 02:11:00,
2013-07-16 20:22:00,58.0,45.0,-100.00,SE,136,11.0,27.0,62,0.00,,,0.00,233.000000,,2013-07-17 02:22:00,
2013-07-16 20:32:00,58.0,45.0,-100.00,SE,136,11.0,27.0,62,0.00,,,0.00,233.000000,,2013-07-17 02:32:00,
2013-07-16 20:43:00,58.0,45.0,-100.00,SE,136,11.0,27.0,62,0.00,,,0.00,233.000000,,2013-07-17 02:43:00,
2013-07-16 20:52:00,55.0,47.0,-100.00,SE,129,11.0,27.0,74,0.00,,,0.00,30.000000,,2013-07-17 02:52:00,
2013-07-16 21:22:00,55.0,47.0,-100.00,SE,129,11.0,27.0,74,0.00,,,0.00,30.000000,,2013-07-17 03:22:00,
2013-07-16 21:32:00,55.0,47.0,-100.00,SE,129,11.0,27.0,74,0.00,,,0.00,30.000000,,2013-07-17 03:32:00,
2013-07-16 21:43:00,55.0,47.0,-100.00,SE,129,11.0,27.0,74,0.00,,,0.00,30.000000,,2013-07-17 03:43:00,
2013-07-16 21:52:00,53.0,47.0,-100.00,SE,139,13.0,28.0,79,0.00,,,-99.99,3.000000,,2013-07-17 03:52:00,
2013-07-16 22:11:00,53.0,47.0,-100.00,SE,139,13.0,28.0,79,0.00,,,-99.99,3.000000,,2013-07-17 04:11:00,
2013-07-16 22:22:00,53.0,47.0,-100.00,SE,139,13.0,28.0,79,0.00,,,-99.99,3.000000,,2013-07-17 04:22:00,
2013-07-16 22:32:00,53.0,47.0,-100.00,SE,139,13.0,28.0,79,0.00,,,-99.99,3.000000,,2013-07-17 04:32:00,
2013-07-16 22:43:00,53.0,47.0,-100.00,SE,139,13.0,28.0,79,0.00,,,-99.99,3.000000,,2013-07-17 04:43:00,
2013-07-16 22:52:00,54.0,46.0,-100.00,SE,127,19.0,28.0,75,0.00,,,-99.99,0.000000,,2013-07-17 04:52:00,
2013-07-16 23:11:00,54.0,46.0,-100.00,SE,127,19.0,28.0,75,0.00,,,-99.99,0.000000,,2013-07-17 05:11:00,
2013-07-16 23:22:00,54.0,46.0,-100.00,SE,127,19.0,28.0,75,0.00,,,-99.99,0.000000,,2013-07-17 05:22:00,
2013-07-16 23:32:00,54.0,46.0,-100.00,SE,127,19.0,28.0,75,0.00,,,-99.99,0.000000,,2013-07-17 05:32:00,
2013-07-16 23:43:00,54.0,46.0,-100.00,SE,127,19.0,28.0,75,0.00,,,-99.99,0.000000,,2013-07-17 05:43:00,
2013-07-16 23:52:00,52.0,47.0,-100.00,SE,125,18.0,31.0,82,0.00,,,-99.99,0.000000,,2013-07-17 05:52:00,